Hattiesburg, MS

4:21 PM CDT on April 30, 2017 (GMT -0500)
Chain Municipal

Weather History for KHBG - January, 2014

Change the Weather History Date:

Thursday, January 30, 2014

  Actual Average Record
Temperature  
Mean Temperature 32 °F 49 °F  
Max Temperature 51 °F 60 °F 80 °F (1950)
Min Temperature 12 °F 37 °F 9 °F (1966)
Degree Days  
Heating Degree Days 33 17  
Month to date heating degree days 692 503  
Since 1 July heating degree days 1513 1288  
Cooling Degree Days 0 0  
Month to date cooling degree days 0 0  
Year to date cooling degree days 0 0  
Moisture  
Dew Point 13 °F    
Average Humidity 52    
Maximum Humidity 88    
Minimum Humidity 16    
Precipitation  
Precipitation 0.00 in 0.22 in 9.85 in (1999)
Month to date precipitation 2.67 5.52  
Year to date precipitation 2.67 5.52  
Sea Level Pressure  
Sea Level Pressure 30.26 in    
Wind  
Wind Speed 2 mph (SSE)    
Max Wind Speed 12 mph    
Max Gust Speed 14 mph    
Visibility 10 miles    
Events      
T = Trace of Precipitation, MM = Missing Value Source: NWS Daily Summary

Daily Weather History Graph

Daily Weather History Graph

Search for Another Location

Airport or City:

Trip Planner

Search our weather history database for the weather conditions in past years. The results will help you decide how hot, cold, wet, or windy it might be!

Date:

Astronomy

Jan. 30, 2014 Rise Set
Actual Time 6:50 AM CST 5:30 PM CST
Civil Twilight 6:25 AM CST 5:55 PM CST
Nautical Twilight 5:55 AM CST 6:25 PM CST
Astronomical Twilight 5:27 AM CST 6:53 PM CST
Moon 6:18 AM CST 5:38 PM CST
Length of Visible Light 11h 30m
Length of Day
10h 39m
Waning Crescent, 0% of the Moon is Illuminated
Jan 30
Waning Crescent
Jan 30
New
Feb 6
First Quarter
Feb 14
Full
Feb 22
Last Quarter

Hourly Weather History & Observations

Time (CST) Temp. Windchill Dew Point Humidity Pressure Visibility Wind Dir Wind Speed Gust Speed Precip Events Conditions
12:53 AM 15.1 °F - 10.9 °F 84% 30.38 in 10.0 mi Calm Calm - N/A   Clear
1:53 AM 15.1 °F - 10.9 °F 84% 30.36 in 10.0 mi Calm Calm - N/A   Clear
2:53 AM 14.0 °F - 10.0 °F 84% 30.33 in 10.0 mi Calm Calm - N/A   Clear
3:53 AM 14.0 °F - 10.0 °F 84% 30.33 in 10.0 mi Calm Calm - N/A   Clear
4:53 AM 12.9 °F - 9.0 °F 84% 30.34 in 10.0 mi Calm Calm - N/A   Clear
5:53 AM 12.9 °F - 9.0 °F 84% 30.35 in 10.0 mi Calm Calm - N/A   Clear
6:53 AM 12.9 °F - 9.0 °F 84% 30.35 in 10.0 mi Calm Calm - N/A   Clear
7:53 AM 17.1 °F - 12.9 °F 84% 30.34 in 10.0 mi Calm Calm - N/A   Clear
8:53 AM 23.0 °F - 16.0 °F 74% 30.34 in 10.0 mi Calm Calm - N/A   Clear
9:53 AM 30.9 °F 25.2 °F 12.0 °F 46% 30.33 in 10.0 mi SE 5.8 mph - 0.00 in   Clear
10:53 AM 36.0 °F - 10.0 °F 34% 30.32 in 10.0 mi Calm Calm - N/A   Clear
11:53 AM 39.9 °F 36.7 °F 10.9 °F 31% 30.30 in 10.0 mi Variable 4.6 mph - N/A   Clear
12:53 PM 44.1 °F - 9.0 °F 24% 30.25 in 10.0 mi Calm Calm - N/A   Clear
1:53 PM 48.0 °F - 6.1 °F 18% 30.21 in 10.0 mi South 4.6 mph - N/A   Clear
2:53 PM 50.0 °F - 7.0 °F 18% 30.17 in 10.0 mi Variable 3.5 mph - N/A   Clear
3:53 PM 51.1 °F - 6.1 °F 16% 30.16 in 10.0 mi SE 8.1 mph - N/A   Clear
4:53 PM 50.0 °F - 10.0 °F 20% 30.15 in 10.0 mi South 6.9 mph - N/A   Clear
5:53 PM 39.9 °F - 17.1 °F 40% 30.16 in 10.0 mi Calm Calm - N/A   Clear
6:53 PM 33.1 °F - 19.9 °F 59% 30.16 in 10.0 mi Calm Calm - N/A   Clear
7:53 PM 30.9 °F - 18.0 °F 59% 30.17 in 10.0 mi Calm Calm - N/A   Clear
8:53 PM 30.9 °F - 19.0 °F 61% 30.17 in 10.0 mi Calm Calm - N/A   Clear
9:53 PM 28.0 °F - 21.0 °F 75% 30.17 in 10.0 mi Calm Calm - N/A   Clear
10:53 PM 27.0 °F - 19.9 °F 75% 30.15 in 10.0 mi Calm Calm - N/A   Clear
11:53 PM 26.1 °F 21.9 °F 19.9 °F 78% 30.14 in 10.0 mi SSE 3.5 mph - N/A   Clear